Tracking 19125 objects as of 19-Apr-2018
HD Live streaming from Space Station
objects crossing your sky now

COSMOS 2289 (GLONASS)

Track COSMOS 2289 (GLONASS) now!
COSMOS 2289 (GLONASS) is classified as:


NORAD ID: 23204
Int'l Code: 1994-050B
Perigee: 19,115.6 km
Apogee: 19,158.4 km
Inclination: 66.1 °
Period: 675.7 minutes
Semi major axis: 25508 km
RCS: 3.5668 m2 (large)
Launch date: August 11, 1994
Source: Commonwealth of Independent States (former USSR) (CIS)
Launch site: TYURATAM MISSILE AND SPACE COMPLEX (TTMTR)
SV:
aabbcc
Your satellite tracking list
Your tracking list is empty




NASA's NSSDC Master Catalog

Two Line Element Set (TLE):
1 23204U 94050B   18108.14044902 +.00000018 +00000-0 +00000-0 0  9990
2 23204 066.1064 299.7437 0008392 331.2013 028.7639 02.13101900184120
Source of the keplerian elements: AFSPC